Date String (YYYY-MM-DD hh:mm:ss) UTC,Instrument flags,Ambient pressure (hPa),Sample flow (lpm),Bypass flow (lpm),Sample temperature (°C),Ambient temperature (°C),ASC tube jacket temperature (°C),LED temperature (°C),Box temperature (°C),Sample RH (%),Span deviation,Mass concentration (μg/m³),Mass concentration (μg/m³),Mass concentration (μg/m³)
DateTimeUTC,F1_M11,P_M11,Q1_M11,Q2_M11,T1_M11,T2_M11,T3_M11,T4_M11,T5_M11,U1_M11,ZSPAN_M11,X0_M11,X2_M11,X1_M11
2022-02-21 00:00:00,,0815.3,4.99,0.00,28.6,27.9,00.0,37.6,30.4,04.4,0000.0,0001.27,0000.58,0000.45
2022-02-21 00:01:00,,0815.4,5.01,0.00,28.6,27.9,00.0,37.6,30.3,04.4,0000.0,0001.21,0000.56,0000.44
2022-02-21 00:02:00,,0815.4,4.99,0.00,28.6,27.9,00.0,37.5,30.2,04.4,0000.0,0001.27,0000.58,0000.44
2022-02-21 00:03:00,,0815.4,5.00,0.00,28.6,27.9,00.0,37.6,30.3,04.5,0000.0,0001.28,0000.58,0000.44
2022-02-21 00:04:00,,0815.4,5.01,0.00,28.6,27.9,00.0,37.6,30.3,04.4,0000.0,0001.26,0000.58,0000.44
2022-02-21 00:05:00,,0815.4,4.99,0.00,28.6,27.9,00.0,37.6,30.3,04.4,0000.0,0001.30,0000.59,0000.44
2022-02-21 00:06:00,,0815.4,5.00,0.00,28.6,27.9,00.0,37.6,30.3,04.7,0000.0,0001.09,0000.58,0000.45
2022-02-21 00:07:00,,0815.4,4.99,0.00,28.6,27.9,00.0,37.6,30.3,04.4,0000.0,0000.94,0000.61,0000.45
2022-02-21 00:08:00,,0815.4,5.00,0.00,28.6,27.9,00.0,37.6,30.3,04.4,0000.0,0001.00,0000.62,0000.45
2022-02-21 00:09:00,,0815.4,5.00,0.00,28.6,27.9,00.0,37.6,30.2,04.3,0000.0,0001.07,0000.64,0000.44
2022-02-21 00:10:00,,0815.4,4.99,0.00,28.6,27.9,00.0,37.6,30.2,04.5,0000.0,0001.11,0000.65,0000.44
2022-02-21 00:11:00,,0815.5,5.03,0.00,28.6,27.9,00.0,37.6,30.3,04.5,0000.0,0001.15,0000.66,0000.44
2022-02-21 00:12:00,,0815.5,4.99,0.00,28.6,27.9,00.0,37.6,30.3,04.3,0000.0,0001.18,0000.67,0000.43
2022-02-21 00:13:00,,0816.0,5.01,0.00,28.6,27.8,00.0,37.6,30.3,04.2,0000.0,0001.18,0000.67,0000.43
2022-02-21 00:14:00,,0815.9,4.99,0.00,28.5,27.8,00.0,37.6,30.3,04.4,0000.0,0001.22,0000.69,0000.44
2022-02-21 00:15:00,,0815.9,5.01,0.00,28.5,27.8,00.0,37.6,30.3,04.4,0000.0,0001.20,0000.68,0000.43
2022-02-21 00:16:00,,0816.1,4.99,0.00,28.5,27.8,00.0,37.6,30.3,04.5,0000.0,0001.26,0000.65,0000.43
2022-02-21 00:17:00,,0816.0,5.01,0.00,28.5,27.8,00.0,37.6,30.3,04.3,0000.0,0002.36,0000.65,0000.43
2022-02-21 00:18:00,,0816.0,4.99,0.00,28.5,27.8,00.0,37.5,30.3,04.2,0000.0,0002.76,0000.65,0000.43
2022-02-21 00:19:00,,0815.9,5.01,0.00,28.5,27.8,00.0,37.5,30.3,03.9,0000.0,0002.87,0000.63,0000.43
2022-02-21 00:20:00,,0816.0,5.01,0.00,28.5,27.7,00.0,37.5,30.2,03.7,0000.0,0002.87,0000.64,0000.43
2022-02-21 00:21:00,,0816.1,4.99,0.00,28.5,27.7,00.0,37.5,30.2,03.8,0000.0,0003.04,0000.62,0000.43
2022-02-21 00:22:00,,0816.1,5.02,0.00,28.5,27.7,00.0,37.5,30.2,03.7,0000.0,0003.16,0000.61,0000.44
2022-02-21 00:23:00,,0815.6,4.98,0.00,28.5,27.7,00.0,37.5,30.1,03.9,0000.0,0003.10,0000.59,0000.44
2022-02-21 00:24:00,,0815.6,5.00,0.00,28.5,27.7,00.0,37.5,30.1,04.0,0000.0,0003.07,0000.58,0000.43
2022-02-21 00:25:00,,0815.6,5.00,0.00,28.5,27.7,00.0,37.5,30.2,03.6,0000.0,0003.05,0000.56,0000.43
2022-02-21 00:26:00,,0815.7,4.99,0.00,28.5,27.7,00.0,37.5,30.1,03.7,0000.0,0003.07,0000.57,0000.43
2022-02-21 00:27:00,,0815.8,5.01,0.00,28.5,27.7,00.0,37.5,30.1,03.7,0000.0,0002.91,0000.58,0000.43
2022-02-21 00:28:00,,0815.8,4.98,0.00,28.5,27.7,00.0,37.5,30.1,04.0,0000.0,0001.80,0000.56,0000.42
2022-02-21 00:29:00,,0815.8,5.02,0.00,28.5,27.7,00.0,37.5,30.1,03.9,0000.0,0001.37,0000.55,0000.43
2022-02-21 00:30:00,,0815.8,4.99,0.00,28.5,27.7,00.0,37.5,30.1,03.8,0000.0,0001.22,0000.56,0000.43
2022-02-21 00:31:00,,0815.9,5.00,0.00,28.5,27.7,00.0,37.5,30.2,03.4,0000.0,0001.25,0000.58,0000.43
2022-02-21 00:32:00,,0815.8,5.02,0.00,28.5,27.7,00.0,37.5,30.1,03.6,0000.0,0001.13,0000.60,0000.43
2022-02-21 00:33:00,,0815.9,5.00,0.00,28.5,27.7,00.0,37.5,30.1,04.0,0000.0,0000.91,0000.60,0000.43
2022-02-21 00:34:00,,0816.0,5.01,0.00,28.5,27.7,00.0,37.5,30.2,04.0,0000.0,0000.96,0000.62,0000.44
2022-02-21 00:35:00,,0815.9,4.98,0.00,28.5,27.7,00.0,37.5,30.2,03.8,0000.0,0001.07,0000.64,0000.44
2022-02-21 00:36:00,,0816.0,5.02,0.00,28.5,27.7,00.0,37.5,30.2,03.9,0000.0,0001.18,0000.67,0000.45
2022-02-21 00:37:00,,0815.9,4.99,0.00,28.5,27.7,00.0,37.5,30.2,03.9,0000.0,0001.17,0000.66,0000.45
2022-02-21 00:38:00,,0816.0,5.01,0.00,28.5,27.7,00.0,37.5,30.2,03.7,0000.0,0001.24,0000.68,0000.45
2022-02-21 00:39:00,,0815.9,5.00,0.00,28.5,27.7,00.0,37.5,30.2,03.8,0000.0,0001.26,0000.69,0000.45
2022-02-21 00:40:00,,0815.9,5.01,0.00,28.5,27.6,00.0,37.5,30.2,03.7,0000.0,0001.25,0000.70,0000.45
2022-02-21 00:41:00,,0815.9,5.00,0.00,28.4,27.6,00.0,37.5,30.2,03.7,0000.0,0001.22,0000.70,0000.44
2022-02-21 00:42:00,,0815.8,5.02,0.00,28.4,27.6,00.0,37.5,30.1,03.5,0000.0,0001.14,0000.67,0000.44
2022-02-21 00:43:00,,0815.8,4.98,0.00,28.4,27.5,00.0,37.5,30.0,03.5,0000.0,0001.21,0000.66,0000.44
2022-02-21 00:44:00,,0815.8,5.01,0.00,28.3,27.5,00.0,37.5,30.0,03.5,0000.0,0001.41,0000.69,0000.43
2022-02-21 00:45:00,,0815.8,4.99,0.00,28.3,27.4,00.0,37.4,29.9,03.6,0000.0,0001.44,0000.70,0000.43
2022-02-21 00:46:00,,0815.9,5.01,0.00,28.2,27.4,00.0,37.4,29.9,03.6,0000.0,0001.39,0000.71,0000.43
2022-02-21 00:47:00,,0815.9,4.99,0.00,28.2,27.3,00.0,37.4,29.8,03.7,0000.0,0001.26,0000.67,0000.43
2022-02-21 00:48:00,,0815.9,4.99,0.00,28.1,27.3,00.0,37.4,29.8,03.8,0000.0,0001.25,0000.67,0000.42
2022-02-21 00:49:00,,0815.9,5.02,0.00,28.1,27.3,00.0,37.3,29.8,03.9,0000.0,0001.40,0000.66,0000.42
2022-02-21 00:50:00,,0815.9,4.98,0.00,28.1,27.3,00.0,37.3,29.8,04.0,0000.0,0001.48,0000.69,0000.43
2022-02-21 00:51:00,,0815.9,5.01,0.00,28.1,27.3,00.0,37.3,29.8,03.8,0000.0,0001.49,0000.69,0000.43
2022-02-21 00:52:00,,0815.9,5.01,0.00,28.1,27.3,00.0,37.3,29.8,03.9,0000.0,0001.47,0000.68,0000.43
2022-02-21 00:53:00,,0815.9,4.99,0.00,28.1,27.3,00.0,37.3,29.8,04.0,0000.0,0001.63,0000.66,0000.44
2022-02-21 00:54:00,,0816.0,5.01,0.00,28.1,27.3,00.0,37.3,29.8,03.9,0000.0,0002.21,0000.68,0000.44
2022-02-21 00:55:00,,0815.9,4.99,0.00,28.1,27.3,00.0,37.2,29.8,04.0,0000.0,0002.09,0000.68,0000.44
2022-02-21 00:56:00,,0815.9,5.01,0.00,28.1,27.3,00.0,37.2,29.8,04.3,0000.0,0002.09,0000.69,0000.45
2022-02-21 00:57:00,,0815.9,5.00,0.00,28.1,27.3,00.0,37.2,29.8,04.3,0000.0,0002.05,0000.66,0000.45
2022-02-21 00:58:00,,0816.0,5.01,0.00,28.1,27.3,00.0,37.2,29.8,04.1,0000.0,0002.14,0000.69,0000.45
2022-02-21 00:59:00,,0815.9,4.98,0.00,28.1,27.4,00.0,37.2,29.8,04.2,0000.0,0002.15,0000.68,0000.45
